User: anonymous   Login
Location: Unspecified
(0.0000°N, 0.0000°E)
Time: 16:24:09
(UTC+00:00)
Language:

BEESAT - Orbit

View from above orbital plane
View from above orbital plane
View from above satellite
View from above satellite

Ground track
Ground track

The orbit data is extracted from the following two-line orbital elements,

1 35933U 09051C   19347.19667083  .00000091  00000-0  31573-4 0  9995
2 35933  98.6008 160.3760 0005793   5.3923 354.7335 14.56421344542729
Epoch (UTC): 13 December 2019 04:43:12
Eccentricity: 0.0005793
inclination: 98.6008°
perigee height: 700 km
apogee height: 709 km
right ascension of ascending node: 160.3760°
argument of perigee: 5.3923°
revolutions per day: 14.56421344
mean anomaly at epoch: 354.7335°
orbit number at epoch: 54272

The dashed part of the orbit path shows where the satellite is in the earth's shadow,  

DLR